EW6230 Weather Reports


Display with metric or nautical units.
time (UTC)temp
F
wind
direction
speed
MPH
gust
MPH
rain 1hr
in
rain 24hr
in
rain mn
in
humidity
%
barometer
mb
20260502210031 74 30 0.0 0.0 0.00 0.00 0.00 46 1013.2
20260502204520 73 160 0.0 0.0 0.00 0.00 0.00 45 1013.4
20260502203015 74 26 0.0 0.0 0.00 0.00 0.00 43 1013.6
20260502201513 74 89 0.0 0.0 0.00 0.00 0.00 43 1013.7
20260502200006 72 332 0.0 0.0 0.00 0.00 0.00 44 1013.9
20260502194505 72 100 0.0 0.0 0.00 0.00 0.00 48 1014.0
20260502193059 71 80 0.0 0.0 0.00 0.00 0.00 47 1014.1
20260502191603 70 20 0.0 0.0 0.00 0.00 0.00 53 1014.2
20260502190052 69 83 0.0 0.0 0.00 0.00 0.00 50 1014.4
20260502184550 70 314 0.0 0.0 0.00 0.00 0.00 50 1014.4
20260502183041 69 91 0.0 0.0 0.00 0.00 0.00 52 1014.6
20260502181543 70 82 0.0 0.0 0.00 0.00 0.00 52 1014.6
20260502163015 61 243 0.0 0.0 0.00 0.00 0.00 52 1015.0
20260502161607 60 243 0.0 0.0 0.00 0.00 0.00 43 1014.9
20260502151553 57 243 0.0 0.0 0.00 0.00 0.00 1 1014.5
20260502123104 47 243 0.0 0.0 0.00 0.00 0.00 1 1013.7
20260502121550 47 243 0.0 0.0 0.00 0.00 0.00 1 1013.6
20260502114542 47 243 0.0 0.0 0.00 0.00 0.00 1 1013.3
20260502113037 47 243 0.0 0.0 0.00 0.00 0.00 1 1013.2
20260502111532 47 243 0.0 0.0 0.00 0.00 0.00 1 1013.4
20260502110028 47 243 0.0 0.0 0.00 0.00 0.00 1 1013.1
20260502104528 47 243 0.0 0.0 0.00 0.00 0.00 1 1013.0
20260502103019 48 240 0.0 0.0 0.00 0.00 0.00 1 1012.9
20260502101514 48 240 0.0 0.0 0.00 0.00 0.00 1 1013.0
20260502090111 49 240 0.0 0.0 0.00 0.00 0.00 1 1013.2
20260502071521 51 186 0.0 0.0 0.00 0.00 0.00 1 1013.0
20260502070017 50 154 0.0 0.0 0.00 0.00 0.00 1 1013.1
20260502064512 51 154 0.0 0.0 0.00 0.00 0.00 1 1013.1
20260502063008 51 154 0.0 0.0 0.00 0.00 0.00 1 1013.0
20260502061502 51 154 0.0 0.0 0.00 0.00 0.00 1 1013.0
20260502060059 52 154 0.0 0.0 0.00 0.00 0.00 1 1012.9
20260502054555 53 154 0.0 0.0 0.00 0.00 0.00 1 1012.8
20260502053101 53 154 0.0 0.0 0.00 0.00 0.00 1 1012.8
20260502051546 53 154 0.0 0.0 0.00 0.00 0.00 1 1012.7
20260502050041 53 154 0.0 0.0 0.00 0.00 0.00 1 1012.7
20260502044537 53 154 0.0 0.0 0.00 0.00 0.00 1 1012.6
20260502043033 53 154 0.0 0.0 0.00 0.00 0.00 1 1012.5
20260502041531 54 154 0.0 0.0 0.00 0.00 0.00 8 1012.4
20260502040023 54 154 0.0 0.0 0.00 0.00 0.00 13 1012.4
20260502034518 55 105 0.0 0.0 0.00 0.00 0.00 20 1012.3
20260502033023 55 104 0.0 0.0 0.00 0.00 0.00 26 1012.1
20260502031513 56 105 0.0 0.0 0.00 0.00 0.00 31 1012.0
20260502030004 56 105 0.0 0.0 0.00 0.00 0.00 35 1011.9
20260502024607 57 105 0.0 0.0 0.00 0.00 0.00 36 1011.9
20260502023056 57 104 0.0 0.0 0.00 0.00 0.00 42 1011.8
20260502021552 57 104 0.0 0.0 0.00 0.00 0.00 43 1011.8
20260502020047 58 104 0.0 0.0 0.00 0.00 0.00 42 1011.8
20260502014542 58 104 0.0 0.0 0.00 0.00 0.00 41 1011.7
20260502013040 58 104 0.0 0.0 0.00 0.00 0.00 40 1012.0
20260502011533 58 105 0.0 0.0 0.00 0.00 0.00 41 1012.0
20260502010029 59 73 0.0 0.0 0.00 0.00 0.00 49 1012.1
20260502004524 59 73 0.0 0.0 0.00 0.00 0.00 54 1012.2
20260502003020 60 73 0.0 0.0 0.00 0.00 0.00 54 1012.1
20260502001514 62 72 0.0 0.0 0.00 0.00 0.00 61 1012.2
20260502000014 63 71 0.0 0.0 0.00 0.00 0.00 61 1012.2
20260501234506 65 44 0.0 0.0 0.00 0.00 0.00 60 1012.3
20260501233002 66 3 0.0 0.0 0.00 0.00 0.00 61 1012.4
20260501231604 66 356 0.0 0.0 0.00 0.00 0.00 59 1012.4
20260501230059 67 8 0.0 0.0 0.00 0.00 0.00 59 1012.5
20260501224548 68 4 0.0 0.0 0.00 0.00 0.00 59 1012.7
20260501223053 67 352 0.0 0.0 0.00 0.00 0.00 60 1012.9
20260501221539 67 3 0.0 0.0 0.00 0.00 0.00 57 1013.0
20260501220035 68 2 0.0 0.0 0.00 0.00 0.00 57 1013.0
20260501214531 68 10 0.0 0.0 0.00 0.00 0.00 58 1013.1
20260501213025 67 34 0.0 0.0 0.00 0.00 0.00 57 1013.2
20260501211521 67 4 0.0 0.0 0.00 0.00 0.00 55 1013.3